Weather observations for the past three days for
San Luis Valley Regional Airport
Imperial (Metric)
Date Time (mdt) Wind (mph) Vis. (mi.) Weather Sky Cond. Temperature (ºF) Relative Humidity Wind Chill (°F) Heat Index (°F) Pressure Precipitation (in)
Air Dwpt 6 hour altimeter (in) sea level (mb) 1 hr 3 hr 6 hr
Max. Min.
13 14:52 S 9 10.00 Fair CLR 88 28 11% 84 30.29 1014.7
13 13:52 Vrbl 6 10.00 Fair CLR 86 25 11% 83 30.31 1015.7
13 12:52 E 6 10.00 Fair CLR 84.9 30.9 14% 82 30.33 1016.3
13 11:52 E 6 10.00 Fair CLR 81 37.9 82 44.1 21% 79 30.34 1016.7
13 10:52 Calm 10.00 Fair CLR 77 37.9 24% 77 30.35 1016.9
13 09:52 N 3 10.00 Fair CLR 72 37.9 29% 30.36 1017.3
13 08:52 NE 3 10.00 Fair CLR 66 41 40% 30.36 1018.2
13 07:52 Calm 10.00 Fair CLR 59 41 51% 30.35 1017.7
13 06:52 SE 7 10.00 Fair CLR 51.1 44.1 77% 30.33 1017.4
13 05:52 Calm 10.00 Fair CLR 44.1 41 57 44.1 89% 30.32 1017.5
13 04:52 SW 5 10.00 Fair CLR 46.9 42.1 83% 45 30.3 1017.1
13 03:52 NE 5 10.00 Fair CLR 48.9 43 80% 48 30.29 1015.5
13 02:52 W 3 10.00 Fair CLR 51.1 43 74% 30.28 1014.6
13 01:52 S 8 10.00 Fair CLR 52 44.1 75% 30.28 1014.8
13 00:52 Calm 10.00 Fair CLR 53.1 43 69% 30.28 1015.2
12 23:52 Calm 10.00 Fair CLR 57 45 82.9 55.9 64% 30.28 1015.3
12 22:52 SW 6 10.00 Fair CLR 62.1 44.1 52% 30.28 1015.3
12 21:52 W 8 10.00 Fair CLR 68 39.9 36% 30.28 1014.9
12 20:52 SW 6 10.00 Fair CLR 68 46.9 47% 30.25 1014.7
12 19:52 SW 6 10.00 Fair CLR 75 39.9 28% 77 30.25 1014.1
12 18:52 W 5 10.00 Fair CLR 80.1 35.1 20% 79 30.25 1014.3
12 17:52 NE 3 10.00 Fair CLR 81 32 86 77 17% 79 30.25 1015.1
12 16:52 NW 26 G 44 9.00 Mostly Cloudy and Windy FEW075 BKN110 78.1 34 20% 77 30.29 1016.6
12 15:52 W 9 G 16 10.00 A Few Clouds FEW110 84.9 35.1 17% 82 30.26 1014.5
12 14:52 NW 8 G 17 10.00 A Few Clouds FEW110 86 34 15% 83 30.27 1014.6
12 13:52 SE 8 10.00 Fair CLR 82.9 37.9 20% 81 30.29 1015.5
12 12:52 SW 8 10.00 Fair CLR 81 37 21% 79 30.31 1016.2
12 11:52 SE 6 10.00 Fair CLR 75.9 42.1 77 46.9 30% 77 30.33 1017.1
12 10:52 Calm 10.00 Fair CLR 72 42.1 34% 30.34 1017.2
12 09:52 Calm 10.00 Fair CLR 68 46 45% 30.34 1017.2
12 08:52 Vrbl 5 10.00 Fair CLR 62.1 46.9 58% 30.34 1018.5
12 07:52 Calm 10.00 Fair CLR 57.9 46.9 67% 30.34 1018.2
12 06:52 S 3 10.00 Fair CLR 52 46.9 83% 30.32 1017.5
12 05:52 Calm 10.00 Fair CLR 46.9 43 57 46 86% 30.31 1017.7
12 04:52 E 7 10.00 Fair CLR 46.9 43 86% 44 30.29 1016.7
12 03:52 NE 6 10.00 Fair CLR 48 43 83% 46 30.28 1016.8
12 02:52 E 6 10.00 Fair CLR 48.9 45 86% 47 30.28 1016.7
12 01:52 Calm 10.00 Fair CLR 51.1 46 83% 30.27 1016.2
12 00:52 SE 5 10.00 Fair CLR 53.1 46.9 80% 30.27 1015.9
11 23:52 S 5 10.00 Fair CLR 55 48.9 75 55 80% 30.26 1016.0
11 22:52 Calm 10.00 Mostly Cloudy BKN110 61 48 63% 30.27 1015.7
11 21:52 S 10 10.00 A Few Clouds FEW120 64.9 44.1 47% 30.24 1014.7
11 20:52 SW 7 10.00 Fair CLR 64 46.9 54% 30.22 1014.6
11 19:52 SE 8 10.00 Fair CLR 69.1 48.9 49% 30.2 1014.1
11 18:52 SW 3 10.00 A Few Clouds FEW120 75 42.1 31% 77 30.19 1013.4
11 17:52 W 12 10.00 Fair CLR 75 39.9 75.9 68 28% 77 30.19 1013.5
11 16:52 W 12 10.00 Fair CLR 75.9 46 35% 78 30.21 1013.7
11 15:52 SW 14 10.00 Fair CLR 73 46 38% 30.24 1015.0
11 14:52 SW 16 10.00 Fair CLR 73 46.9 40% 30.24 1015.0
11 13:52 SW 12 10.00 Fair CLR 73 46 38% 30.24 1015.3
11 12:52 Calm 10.00 Fair CLR 72 50 46% 30.26 1015.7
11 11:52 Vrbl 3 10.00 Fair CLR 68 53.1 69.1 45 59% 30.28 1016.8
11 10:52 Calm 10.00 Fair CLR 64.9 50 59% 30.3 1017.7
11 09:52 Calm 10.00 Fair CLR 61 51.1 70% 30.31 1018.4
11 08:52 S 3 10.00 Fair CLR 57 51.1 81% 30.32 1019.4
11 07:52 SE 3 9.00 A Few Clouds FEW003 53.1 51.1 93% 30.31 1019.7
11 06:52 Calm 9.00 Fair CLR 48.9 48 97% 30.3 1019.6
11 05:52 Calm 7.00 Fair CLR 46 45 53.1 46 96% 30.29 1018.0
11 04:52 W 5 10.00 Fair CLR 50 48 93% 49 30.27 1016.3
11 03:52 W 6 10.00 Fair CLR 50 48 93% 48 30.27 1016.3
11 02:52 Calm 10.00 Fair CLR 50 48 93% 30.27 1015.9
11 01:52 Calm 10.00 Fair CLR 50 48 93% 30.27 1016.3
11 00:52 SE 5 10.00 Fair CLR 52 50 93% 30.27 1016.7
10 23:52 E 6 10.00 A Few Clouds FEW120 54 50 66.9 53.1 87% 30.28 1017.4 0.46
10 22:52 Calm 10.00 A Few Clouds FEW080 55 51.1 87% 30.27 1016.8
10 21:52 NW 13 10.00 Light Rain BKN080 OVC095 55.9 51.1 84% 30.27 1016.8 0.01
10 20:52 W 10 10.00 Light Rain OVC080 55 51.1 87% 30.24 1016.5 0.01 0.45
10 19:52 E 14 10.00 Light Rain FEW055 FEW070 OVC085 55 50 83% 30.23 1016.5 0.09
10 18:52 N 12 6.00 Thunderstorm in Vicinity Light Rain FEW043 OVC065 55.9 50 81% 30.21 1015.6 0.35
10 17:52 Calm 10.00 Thunderstorm SCT060 BKN085 68 44.1 75.9 64 42% 30.16 1012.5
10 16:52 S 7 10.00 Mostly Cloudy SCT060 BKN080 73 45 37% 30.11 1010.4
10 15:52 Vrbl 5 10.00 Fair CLR 71.1 46 41% 30.13 1010.9
Date Time (mdt) Wind (mph) Vis. (mi.) Weather Sky Cond. Air Dwpt Max. Min. Relative Humidity Wind Chill (°F) Heat Index (°F) altimeter (in) sea level (mb) 1 hr 3 hr 6 hr
6 hour
Temperature (ºF) Pressure Precipitation (in)